Time,TemperatureF,DewpointF,PressureIn,WindDirection,WindDirectionDegrees,WindSpeedMPH,WindSpeedGustMPH,Humidity,HourlyPrecipIn,Conditions,Clouds,dailyrainin,SoftwareType,DateUTC
2013-09-08 00:02:00,-999.0,-99.9,29.97,ESE,108,3.0,6.0,-999,-99.99,,,-99.99,,2013-09-08 04:02:00,
2013-09-08 00:14:00,72.0,71.0,29.97,ESE,108,3.0,6.0,97,-99.99,,,-99.99,,2013-09-08 04:14:00,
2013-09-08 00:24:00,72.0,71.0,29.97,ENE,62,2.0,3.0,97,-99.99,,,-99.99,,2013-09-08 04:24:00,
2013-09-08 00:34:00,72.0,71.0,29.97,ENE,62,2.0,3.0,97,-99.99,,,-99.99,,2013-09-08 04:34:00,
2013-09-08 00:54:00,72.0,71.0,29.97,SSE,157,2.0,4.0,97,-99.99,,,-99.99,,2013-09-08 04:54:00,
2013-09-08 01:13:00,71.0,71.0,29.96,SSE,155,2.0,3.0,97,-99.99,,,-99.99,,2013-09-08 05:13:00,
2013-09-08 01:23:00,72.0,71.0,29.95,SSE,160,2.0,4.0,98,-99.99,,,-99.99,,2013-09-08 05:23:00,
2013-09-08 01:34:00,72.0,71.0,29.95,SSE,160,2.0,4.0,98,-99.99,,,-99.99,,2013-09-08 05:34:00,
2013-09-08 01:52:00,72.0,71.0,29.95,SW,216,2.0,7.0,98,-99.99,,,-99.99,,2013-09-08 05:52:00,
2013-09-08 02:13:00,72.0,71.0,29.95,SSE,158,3.0,7.0,98,-99.99,,,-99.99,,2013-09-08 06:13:00,
2013-09-08 02:22:00,71.0,71.0,29.95,SSE,166,1.0,2.0,98,-99.99,,,-99.99,,2013-09-08 06:22:00,
2013-09-08 02:33:00,71.0,71.0,29.95,SSE,166,1.0,2.0,98,-99.99,,,-99.99,,2013-09-08 06:33:00,
2013-09-08 03:12:00,71.0,71.0,29.94,East,91,2.0,4.0,98,-99.99,,,-99.99,,2013-09-08 07:12:00,
2013-09-08 03:23:00,71.0,71.0,29.94,East,79,1.0,2.0,98,-99.99,,,-99.99,,2013-09-08 07:23:00,
2013-09-08 03:32:00,71.0,71.0,29.94,East,79,1.0,2.0,98,-99.99,,,-99.99,,2013-09-08 07:32:00,
2013-09-08 03:52:00,71.0,70.0,29.93,ENE,61,1.0,3.0,98,-99.99,,,-99.99,,2013-09-08 07:52:00,
2013-09-08 04:12:00,71.0,70.0,29.93,SSE,168,2.0,4.0,98,-99.99,,,-99.99,,2013-09-08 08:12:00,
2013-09-08 04:22:00,71.0,70.0,29.93,SE,124,2.0,4.0,98,-99.99,,,-99.99,,2013-09-08 08:22:00,
2013-09-08 04:32:00,71.0,70.0,29.93,SE,124,2.0,4.0,98,-99.99,,,-99.99,,2013-09-08 08:32:00,
2013-09-08 04:52:00,71.0,71.0,29.93,ESE,123,3.0,6.0,98,-99.99,,,-99.99,,2013-09-08 08:52:00,
2013-09-08 05:12:00,71.0,71.0,29.93,ESE,109,3.0,6.0,98,-99.99,,,-99.99,,2013-09-08 09:12:00,
2013-09-08 05:22:00,71.0,71.0,29.92,ENE,70,2.0,4.0,98,-99.99,,,-99.99,,2013-09-08 09:22:00,
2013-09-08 05:33:00,71.0,71.0,29.92,ENE,70,2.0,4.0,98,-99.99,,,-99.99,,2013-09-08 09:33:00,
2013-09-08 05:54:00,71.0,71.0,29.93,SW,230,2.0,4.0,98,-99.99,,,-99.99,,2013-09-08 09:54:00,
2013-09-08 06:12:00,71.0,70.0,29.93,ESE,118,1.0,3.0,98,-99.99,,,-99.99,,2013-09-08 10:12:00,
2013-09-08 06:23:00,71.0,70.0,29.93,WNW,283,1.0,3.0,98,-99.99,,,-99.99,,2013-09-08 10:23:00,
2013-09-08 06:33:00,71.0,70.0,29.93,WNW,283,1.0,3.0,98,-99.99,,,-99.99,,2013-09-08 10:33:00,
2013-09-08 06:53:00,70.0,70.0,29.93,East,80,1.0,2.0,98,-99.99,,,-99.99,,2013-09-08 10:53:00,
2013-09-08 07:12:00,70.0,70.0,29.93,ENE,70,1.0,3.0,98,-99.99,,,-99.99,,2013-09-08 11:12:00,
2013-09-08 07:22:00,70.0,70.0,29.93,WNW,295,1.0,3.0,98,-99.99,,,-99.99,,2013-09-08 11:22:00,
2013-09-08 07:33:00,70.0,70.0,29.93,WNW,295,1.0,3.0,98,-99.99,,,-99.99,,2013-09-08 11:33:00,
2013-09-08 07:52:00,70.0,70.0,29.94,SE,132,2.0,4.0,98,-99.99,,,-99.99,,2013-09-08 11:52:00,
2013-09-08 08:12:00,71.0,70.0,29.94,WSW,253,2.0,4.0,98,-99.99,,,-99.99,,2013-09-08 12:12:00,
2013-09-08 08:22:00,72.0,72.0,29.94,ENE,62,2.0,5.0,98,-99.99,,,-99.99,,2013-09-08 12:22:00,
2013-09-08 08:32:00,72.0,72.0,29.94,ENE,62,2.0,5.0,98,-99.99,,,-99.99,,2013-09-08 12:32:00,
2013-09-08 08:52:00,73.0,72.0,29.95,ENE,76,2.0,5.0,98,-99.99,,,-99.99,,2013-09-08 12:52:00,
2013-09-08 09:12:00,74.0,73.0,29.95,ENE,60,3.0,6.0,96,-99.99,,,-99.99,,2013-09-08 13:12:00,
2013-09-08 09:22:00,76.0,73.0,29.97,ENE,71,3.0,7.0,90,-99.99,,,-99.99,,2013-09-08 13:22:00,
2013-09-08 09:32:00,76.0,73.0,29.97,ENE,71,3.0,7.0,90,-99.99,,,-99.99,,2013-09-08 13:32:00,
2013-09-08 09:52:00,77.0,73.0,29.97,NE,51,5.0,8.0,87,-99.99,,,-99.99,,2013-09-08 13:52:00,
2013-09-08 10:11:00,79.0,74.0,29.97,ENE,70,4.0,10.0,85,-99.99,,,-99.99,,2013-09-08 14:11:00,
2013-09-08 10:22:00,81.0,74.0,29.97,East,92,4.0,8.0,79,-99.99,,,-99.99,,2013-09-08 14:22:00,
2013-09-08 10:32:00,81.0,74.0,29.97,East,92,4.0,8.0,79,-99.99,,,-99.99,,2013-09-08 14:32:00,
2013-09-08 10:52:00,82.0,75.0,29.97,East,84,4.0,9.0,77,-99.99,,,-99.99,,2013-09-08 14:52:00,
2013-09-08 11:12:00,82.0,75.0,29.97,East,85,5.0,9.0,77,-99.99,,,-99.99,,2013-09-08 15:12:00,
2013-09-08 11:23:00,85.0,75.0,29.97,ESE,119,3.0,7.0,72,-99.99,,,-99.99,,2013-09-08 15:23:00,
2013-09-08 11:34:00,85.0,75.0,29.97,ESE,119,3.0,7.0,72,-99.99,,,-99.99,,2013-09-08 15:34:00,
2013-09-08 11:55:00,84.0,74.0,29.97,ESE,116,2.0,5.0,73,-99.99,,,-99.99,,2013-09-08 15:55:00,
2013-09-08 12:14:00,84.0,74.0,29.97,SE,145,3.0,7.0,69,-99.99,,,-99.99,,2013-09-08 16:14:00,
2013-09-08 12:24:00,87.0,72.0,29.96,ESE,105,3.0,8.0,61,-99.99,,,-99.99,,2013-09-08 16:24:00,
2013-09-08 12:34:00,87.0,72.0,29.96,ESE,105,3.0,8.0,61,-99.99,,,-99.99,,2013-09-08 16:34:00,
2013-09-08 12:54:00,85.0,72.0,29.96,WSW,254,2.0,5.0,63,-99.99,,,-99.99,,2013-09-08 16:54:00,
2013-09-08 13:12:00,87.0,72.0,29.95,NW,312,3.0,7.0,62,-99.99,,,-99.99,,2013-09-08 17:12:00,
2013-09-08 13:24:00,85.0,72.0,29.94,NW,306,5.0,8.0,65,-99.99,,,-99.99,,2013-09-08 17:24:00,
2013-09-08 13:34:00,85.0,72.0,29.94,NW,306,5.0,8.0,65,-99.99,,,-99.99,,2013-09-08 17:34:00,
2013-09-08 13:53:00,86.0,73.0,29.93,WNW,282,3.0,6.0,64,-99.99,,,-99.99,,2013-09-08 17:53:00,
2013-09-08 14:13:00,89.0,73.0,29.93,South,187,4.0,8.0,59,-99.99,,,-99.99,,2013-09-08 18:13:00,
2013-09-08 14:22:00,85.0,72.0,29.93,East,101,3.0,9.0,63,-99.99,,,-99.99,,2013-09-08 18:22:00,
2013-09-08 14:32:00,85.0,72.0,29.93,East,101,3.0,9.0,63,-99.99,,,-99.99,,2013-09-08 18:32:00,
2013-09-08 14:52:00,88.0,73.0,29.92,SE,136,4.0,9.0,60,-99.99,,,-99.99,,2013-09-08 18:52:00,
2013-09-08 15:12:00,89.0,72.0,29.91,WSW,255,7.0,12.0,58,-99.99,,,-99.99,,2013-09-08 19:12:00,
2013-09-08 15:22:00,86.0,71.0,29.90,SW,227,4.0,11.0,60,-99.99,,,-99.99,,2013-09-08 19:22:00,
2013-09-08 15:32:00,86.0,71.0,29.90,SW,227,4.0,11.0,60,-99.99,,,-99.99,,2013-09-08 19:32:00,
2013-09-08 15:52:00,87.0,72.0,29.89,WNW,285,3.0,6.0,60,-99.99,,,-99.99,,2013-09-08 19:52:00,
2013-09-08 16:12:00,84.0,73.0,29.89,SW,215,6.0,13.0,69,-99.99,,,-99.99,,2013-09-08 20:12:00,
2013-09-08 16:22:00,82.0,73.0,29.89,SSW,194,7.0,11.0,75,-99.99,,,-99.99,,2013-09-08 20:22:00,
2013-09-08 16:32:00,82.0,73.0,29.89,SSW,194,7.0,11.0,75,-99.99,,,-99.99,,2013-09-08 20:32:00,
2013-09-08 16:53:00,81.0,72.0,29.88,SW,218,5.0,10.0,74,-99.99,,,-99.99,,2013-09-08 20:53:00,
2013-09-08 17:12:00,80.0,75.0,29.89,South,176,5.0,8.0,84,-99.99,,,-99.99,,2013-09-08 21:12:00,
2013-09-08 17:22:00,82.0,75.0,29.87,SW,226,4.0,7.0,80,-99.99,,,-99.99,,2013-09-08 21:22:00,
2013-09-08 17:34:00,82.0,75.0,29.87,SW,226,4.0,7.0,80,-99.99,,,-99.99,,2013-09-08 21:34:00,
2013-09-08 17:54:00,82.0,75.0,29.88,WSW,241,4.0,7.0,78,-99.99,,,-99.99,,2013-09-08 21:54:00,
2013-09-08 18:13:00,83.0,74.0,29.88,WSW,255,4.0,7.0,75,-99.99,,,-99.99,,2013-09-08 22:13:00,
2013-09-08 18:25:00,86.0,76.0,29.88,SSE,158,5.0,11.0,71,-99.99,,,-99.99,,2013-09-08 22:25:00,
2013-09-08 18:33:00,86.0,76.0,29.88,SSE,158,5.0,11.0,71,-99.99,,,-99.99,,2013-09-08 22:33:00,
2013-09-08 18:53:00,82.0,75.0,29.88,ESE,120,8.0,16.0,79,-99.99,,,-99.99,,2013-09-08 22:53:00,
2013-09-08 19:13:00,77.0,73.0,-100.00,ENE,66,10.0,23.0,87,-99.99,,,-99.99,,2013-09-08 23:13:00,
2013-09-08 20:12:00,71.0,70.0,29.92,SSE,168,6.0,14.0,97,-99.99,,,-99.99,,2013-09-09 00:12:00,
2013-09-08 20:22:00,72.0,71.0,29.92,SW,226,3.0,6.0,96,-99.99,,,-99.99,,2013-09-09 00:22:00,
2013-09-08 20:32:00,72.0,71.0,29.92,SW,226,3.0,6.0,96,-99.99,,,-99.99,,2013-09-09 00:32:00,
2013-09-08 20:52:00,71.0,70.0,29.93,West,271,3.0,5.0,97,-99.99,,,-99.99,,2013-09-09 00:52:00,
2013-09-08 21:12:00,71.0,70.0,29.93,South,169,2.0,5.0,97,-99.99,,,-99.99,,2013-09-09 01:12:00,
2013-09-08 21:22:00,71.0,70.0,29.94,SSW,208,2.0,2.0,97,-99.99,,,-99.99,,2013-09-09 01:22:00,
2013-09-08 21:32:00,71.0,70.0,29.94,SSW,208,2.0,2.0,97,-99.99,,,-99.99,,2013-09-09 01:32:00,
2013-09-08 21:52:00,70.0,70.0,29.94,SW,219,1.0,3.0,97,-99.99,,,-99.99,,2013-09-09 01:52:00,
2013-09-08 22:11:00,71.0,70.0,29.94,WSW,240,1.0,2.0,97,-99.99,,,-99.99,,2013-09-09 02:11:00,
2013-09-08 22:22:00,71.0,70.0,29.95,SW,220,2.0,3.0,97,-99.99,,,-99.99,,2013-09-09 02:22:00,
2013-09-08 22:32:00,71.0,70.0,29.95,SW,220,2.0,3.0,97,-99.99,,,-99.99,,2013-09-09 02:32:00,
2013-09-08 22:53:00,71.0,70.0,29.97,WSW,257,3.0,4.0,98,-99.99,,,-99.99,,2013-09-09 02:53:00,
2013-09-08 23:12:00,71.0,70.0,29.98,ESE,111,2.0,3.0,98,-99.99,,,-99.99,,2013-09-09 03:12:00,
2013-09-08 23:22:00,71.0,70.0,29.97,NE,53,1.0,3.0,98,-99.99,,,-99.99,,2013-09-09 03:22:00,
2013-09-08 23:34:00,71.0,70.0,29.97,NE,53,1.0,3.0,98,-99.99,,,-99.99,,2013-09-09 03:34:00,
2013-09-08 23:55:00,71.0,70.0,29.97,ENE,61,2.0,5.0,98,-99.99,,,-99.99,,2013-09-09 03:55:00,